一网星座-0123星 (ONEWEB-0123 )

导读 | 星芒AI

ONEWE-0123 是 OneWeb 卫星星座计划中的一颗低轨通信卫星,旨在为全球提供高速互联网服务。该卫星由阿丽亚娜航天公司制造,采用标准化设计以提高部署效率。它运行在约 1200 公里的太阳同步轨道上,与其他 OneWeb 卫星共同构建覆盖全球的宽带网络,特别服务于偏远和网络基础设施薄弱的地区。该计划由多个国际合作伙伴支持,致力于实现全球数字包容。

基本信息
目录编号:
47269
目录名称:
ONEWEB-0123
国际标识:
2020-100M
轨道中心:
EARTH
卫星名称:
一网星座-0123星
卫星全名:
一网星座-0123星 (ONEWEB-0123 )
卫星状态:
在轨 (已飞行1821 天)
发射日期:
2020-12-18 UTC
国别 :
英国 (GB)
星等 :
--
轨道信息
数据来源 国际轨道数据 AOE轨道数据
星历时间 2025-12-13T03:23:12+0800
14小时前
查看轨道信息
2025-12-11T02:00:00+0800
2天前
查看轨道信息
半长轴 7591.552km 7591.863km
偏心率 0.0001739 0.0001892
轨道倾角 87.893° 87.895°
近地点辐角 101.139° 93.320°
升交点赤经 27.705° 28.114°
平近点角 258.993° 269.126°
近地点 1212.096km 1212.291km
远地点 1214.738km 1215.165km
周期 109.712分钟 109.719分钟
每日圈数 13.125231 13.124424
详细信息
平衡模式:
三轴稳定
覆盖范围:
全球
运营商:
一网卫星公司
运营商所在国:
英国
制造商(研发单位):
一网卫星公司
制造商所在国:
英国
使用方式:
暂无
卫星简介
OneWeb卫星网络由648颗重约125公斤的微型卫星组成,运行在1200公里的轨道上。 每颗卫星都能够提供至少每秒8千兆位的吞吐量,以使用其高吞吐量的Ku频段有效载荷为家庭和移动平台提供互联网接入。该卫星仍在工作。
2D轨道图
3D轨道图
轨道高度分析图
轨道倾角分析图
轨道综合分析图
查看轨道综合分析图